Change the Weather History Date:

Sunday, January 29, 2006

  Actual Average Record
Temperature  
Mean Temperature 68 °F 62 °F  
Max Temperature 77 °F 72 °F 84 °F (1957)
Min Temperature 58 °F 52 °F 23 °F (1940)
Degree Days  
Heating Degree Days 0 5  
Month to date heating degree days 95 154  
Since 1 July heating degree days 253 309  
Cooling Degree Days 3 2  
Month to date cooling degree days 82 58  
Year to date cooling degree days 82 58  
Growing Degree Days 17 (Base 50)    
Moisture  
Dew Point 58 °F    
Average Humidity 73    
Maximum Humidity 87    
Minimum Humidity 54    
Precipitation  
Precipitation 0.00 in 0.05 in 1.32 in (1930)
Month to date precipitation 6.05 2.38  
Year to date precipitation 6.05 2.38  
Sea Level Pressure  
Sea Level Pressure 30.10 in    
Wind  
Wind Speed 13 mph (SSE)    
Max Wind Speed 23 mph    
Max Gust Speed 29 mph    
Visibility 10 miles    
Events      
T = Trace of Precipitation, MM = Missing Value Source: NWS Daily Summary

Daily Weather History Graph

Daily Weather History Graph

Search for Another Location

Airport or City:

Trip Planner

Search our weather history database for the weather conditions in past years. The results will help you decide how hot, cold, wet, or windy it might be!

Date:

Astronomy

Jan. 29, 2006 Rise Set
Actual Time 7:17 AM EST 6:09 PM EST
Civil Twilight 6:53 AM EST 6:33 PM EST
Nautical Twilight 6:25 AM EST 7:01 PM EST
Astronomical Twilight 5:57 AM EST 7:29 PM EST
Moon 7:34 AM EST (1/29) 6:26 PM EST (1/29)
Length of Visible Light 11h 40m
Length of Day
10h 51m
New Moon, 0% of the Moon is Illuminated
Jan 29
New Moon
Feb 5
First Quarter
Feb 12
Full
Feb 21
Last Quarter
Feb 27
New

Hourly Weather History & Observations

Time (EST) Temp. Dew Point Humidity Pressure Visibility Wind Dir Wind Speed Gust Speed Precip Events Conditions
12:53 AM 59.0 °F 53.1 °F 81% 30.21 in 10.0 mi ESE 6.9 mph - N/A   Clear
1:53 AM 57.9 °F 53.1 °F 84% 30.20 in 10.0 mi ESE 6.9 mph - N/A   Clear
2:53 AM 59.0 °F 54.0 °F 83% 30.18 in 10.0 mi ESE 8.1 mph - N/A   Clear
3:53 AM 60.1 °F 55.0 °F 83% 30.17 in 10.0 mi ESE 8.1 mph - N/A   Overcast
4:53 AM 59.0 °F 55.0 °F 87% 30.15 in 10.0 mi ESE 8.1 mph - N/A   Clear
5:53 AM 59.0 °F 55.0 °F 87% 30.15 in 10.0 mi East 8.1 mph - N/A   Overcast
6:53 AM 61.0 °F 55.0 °F 81% 30.14 in 10.0 mi ESE 9.2 mph - N/A   Mostly Cloudy
7:53 AM 61.0 °F 55.9 °F 83% 30.16 in 10.0 mi East 5.8 mph - N/A   Clear
8:53 AM 64.0 °F 57.0 °F 78% 30.16 in 10.0 mi SE 12.7 mph - N/A   Clear
9:53 AM 71.1 °F 59.0 °F 66% 30.16 in 10.0 mi SSE 12.7 mph - N/A   Clear
10:53 AM 73.0 °F 59.0 °F 61% 30.15 in 10.0 mi SSE 16.1 mph - N/A   Clear
11:53 AM 75.9 °F 59.0 °F 56% 30.12 in 10.0 mi South 21.9 mph - N/A   Clear
12:53 PM 77.0 °F 59.0 °F 54% 30.11 in 10.0 mi South 20.7 mph - N/A   Clear
1:53 PM 75.9 °F 60.1 °F 58% 30.08 in 10.0 mi South 20.7 mph 26.5 mph N/A   Clear
2:53 PM 75.0 °F 60.1 °F 60% 30.05 in 10.0 mi South 16.1 mph 24.2 mph N/A   Clear
3:53 PM 73.9 °F 60.1 °F 62% 30.05 in 10.0 mi South 17.3 mph 21.9 mph N/A   Clear
4:53 PM 73.9 °F 60.1 °F 62% 30.04 in 10.0 mi South 17.3 mph - N/A   Clear
5:53 PM 72.0 °F 60.1 °F 66% 30.03 in 10.0 mi South 13.8 mph 21.9 mph N/A   Clear
6:53 PM 70.0 °F 61.0 °F 73% 30.04 in 10.0 mi SSE 12.7 mph - N/A   Clear
7:53 PM 70.0 °F 61.0 °F 73% 30.03 in 10.0 mi South 11.5 mph - N/A   Scattered Clouds
8:53 PM 70.0 °F 61.0 °F 73% 30.03 in 10.0 mi South 10.4 mph - N/A   Clear
9:53 PM 70.0 °F 61.0 °F 73% 30.03 in 10.0 mi South 15.0 mph - N/A   Clear
10:53 PM 69.1 °F 62.1 °F 78% 30.02 in 10.0 mi South 16.1 mph - N/A   Clear
11:53 PM 69.1 °F 62.1 °F 78% 30.01 in 10.0 mi South 13.8 mph - N/A   Scattered Clouds